Weather in Jiagedaqi

China     50°25′20″N   124°07′10″E
temp.,
°C
wind,
m/s
gust,
m/s
humid.,
%
clouds,
%
prec.,
mm/h
press.,
hPa
HPBL,
m
17 june, thu
thu1723:00+16sse51496100 10.9 9911185
02:00+16sse71399100 28.4 984937
05:00+13ssw41096100 1.2 985580
08:00+13ssw5994100 2.0 984768
11:00+13ssw51087100 0.2 985941
14:00+12ssw61180100 0.4 9861038
17:00+11ssw61384100 0.3 9891262
20:00+10sse368853 0.3 991240
18 june, fri
fri1823:00+9ene228799 0.0 99148
02:00+9e3997100 0.3 991428
05:00+10ese41094100 0.0 992562
08:00+10ese4895100 0.6 991707
11:00+11ese369412 3.3 991509
14:00+15se367798 5.4 9911210
17:00+14se478959 1.6 992837
20:00+11e259789 2.1 994146
19 june, sat
sat1923:00+11ene3998100 0.8 995377
02:00+10e289889 1.2 996317
05:00+10ene3998100 0.6 997438
08:00+13e4996100 1.2 998580
11:00+16ese5987100 1.6 9991020
14:00+17ese489168 4.6 999921
17:00+16e379299 2.1 1000633
20:00+13e3996100 7.2 1001249
20 june, sun
sun2023:00+11ene249932 1.4 100382
02:00+12ene399986 2.9 1004399
05:00+12ne3998100 0.1 1006485
08:00+14ene4990100 0.2 1007773
11:00+18e4773100 0.8 10071272
14:00+21ese575120 1.4 10071737
17:00+18ese37831 0.5 1007361
20:00+14e019055 0.9 100911
21 june, mon
mon2123:00+12nnw119441 0.0 101012
02:00+12wnw1195100 0.0 101010
05:00+13wnw1192100 0.0 101122
08:00+19w117081 0.0 1011373
11:00+24sse124890 0.5 10091555
14:00+21e116957 1.3 1009625
17:00+22sse22590 0.3 1009969
20:00+16ssw11875 0.8 101011